[[{"header":{"parameterUnit":"m.s-1","parameterCategory":1,"la1":30.2992,"la2":30.254,"lo1":-89.0895,"lo2":-89.0443,"dy":0.0025,"dx":0.0025,"nx":19,"ny":19,"refTime":"2026-04-08T21:00:00:Z","depth":0,"parameterNumber":2,"parameterNumberName":"U-component_of_WINDS"},"data":[0,0,0,-7.0982,-7.0984,-7.1031,-7.1031,-7.1135,-7.1137,0,0,0,0,0,0,0,0,0,0,0,-7.0995,-7.0997,-7.0982,-7.0984,-7.1031,-7.1031,-7.1135,-7.1137,0,0,0,0,0,0,0,0,0,0,0,-7.0994,-7.0996,-7.0998,-7.0984,-7.1031,-7.1031,-7.1135,-7.1083,0,0,0,0,0,0,0,0,0,0,-7.103,-7.1068,-7.0996,-7.0998,-7.0985,-7.1031,-7.1031,-7.108,-7.1087,-7.1133,0,-7.1181,0,-7.1161,-7.1146,-7.1147,0,0,0,-7.0964,-7.1063,-7.1052,-7.0999,-7.0985,-7.1031,-7.1004,-7.1083,-7.1091,-7.1142,-7.1182,-7.1185,-7.1163,-7.1147,-7.1148,-7.1485,-7.1488,0,0,-7.0961,-7.1018,-7.1047,-7.1058,-7.1053,-7.1003,-7.1006,-7.1087,-7.1135,-7.1183,-7.1187,-7.1165,-7.1148,-7.115,-7.1483,-7.1486,0,0,0,-7.0967,-7.1017,-7.1002,-7.1055,-7.106,-7.1004,-7.1008,-7.1131,-7.1122,-7.1188,-7.1166,-7.1149,-7.1151,-7.148,-7.1484,-7.1664,0,0,0,-7.0965,-7.102,-7.1002,-7.1037,-7.1059,-7.1096,-7.1051,-7.1116,-7.1123,-7.1165,-7.1149,-7.1152,-7.1477,-7.1482,-7.1653,-7.174,0,0,0,-7.0983,-7.1022,-7.1038,-7.104,-7.1062,-7.1093,-7.1088,-7.1116,-7.1112,-7.1147,-7.1153,-7.1475,-7.1481,-7.1643,-7.1724,-7.1847,0,0,0,-7.1018,-7.1196,-7.1042,-7.1233,-7.1063,-7.1205,-7.1087,-7.1189,-7.1242,-7.115,-7.1477,-7.1484,-7.164,-7.1714,-7.1837,-7.1961,-7.2018,0,0,-7.1274,-7.1229,-7.1337,-7.12,-7.1385,-7.1193,-7.1404,-7.1397,-7.1348,-7.1443,-7.145,-7.1657,-7.1723,-7.1845,-7.2316,-7.2362,0,0,0,-7.1437,-7.1516,-7.1552,-7.1605,-7.1606,-7.1614,-7.1569,-7.1567,-7.1645,-7.1408,-7.1732,-7.177,-7.1839,-7.1896,-7.1935,-7.1991,-7.1512,-7.1511,-7.1511,-7.188,-7.181,-7.1984,-7.1921,-7.1974,-7.1928,-7.1965,-7.1954,-7.1866,-7.1945,-7.1972,-7.2267,-7.2336,-7.2364,-7.2424,-7.2031,-7.2032,-7.2033,-7.2033,-7.225,-7.235,-7.2232,-7.2359,-7.2284,-7.239,-7.2354,-7.2288,-7.2376,-7.2239,-7.2297,-7.2154,-7.2417,-7.2465,-7.2046,-7.2044,-7.2042,-7.2041,-7.204,-7.2533,-7.2569,-7.2565,-7.2636,-7.2699,-7.2628,-7.272,-7.2647,-7.258,-7.2637,-7.266,-7.2656,-7.2645,-7.2653,-7.2654,-7.2655,-7.2656,-7.2657,-7.2657,-7.2828,-7.2817,-7.2903,-7.2922,-7.2948,-7.2973,-7.2931,-7.2955,-7.2962,-7.2903,-7.2903,-7.2809,-7.2455,-7.2369,-7.2673,-7.267,-7.2668,-7.2667,-7.2666,-7.3229,-7.3128,-7.3261,-7.3288,-7.3304,-7.3374,-7.3281,-7.3337,-7.3346,-7.3394,-7.3288,-7.3038,-7.2986,-7.2955,-7.2883,-7.3302,-7.3301,-7.3302,-7.3302,-7.3469,-7.3436,-7.3557,-7.3605,-7.3644,-7.3575,-7.3729,-7.37,-7.3653,-7.3655,-7.3584,-7.3482,-7.3453,-7.3418,-7.3376,-7.3308,-7.3826,-7.3826,-7.3827,-7.3713,-7.3681,-7.3826,-7.3779,-7.3788,-7.3798,-7.3941,-7.4002,-7.3927,-7.3846,-7.3655,-7.3633,-7.3467,-7.3417,-7.3331,-7.3268,-7.3141,0,0]},{"header":{"parameterUnit":"m.s-1","parameterCategory":1,"la1":30.2992,"la2":30.254,"lo1":-89.0895,"lo2":-89.0443,"dy":0.0025,"dx":0.0025,"nx":19,"ny":19,"refTime":"2026-04-08T21:00:00:Z","depth":0,"parameterNumber":3,"parameterNumberName":"V-component_of_WINDS"},"data":[0,0,0,0.8623,0.8622,0.8566,0.8566,0.8471,0.847,0,0,0,0,0,0,0,0,0,0,0,0.863,0.8629,0.8623,0.8622,0.8566,0.8566,0.8471,0.847,0,0,0,0,0,0,0,0,0,0,0,0.863,0.8629,0.8628,0.8622,0.8566,0.8566,0.8472,0.8521,0,0,0,0,0,0,0,0,0,0,0.8579,0.8575,0.8629,0.8628,0.8621,0.8566,0.8566,0.8524,0.8518,0.8488,0,0.8462,0,0.8465,0.8463,0.8462,0,0,0,0.8628,0.858,0.8575,0.8627,0.8621,0.8566,0.8593,0.8521,0.8514,0.848,0.846,0.8457,0.8463,0.8462,0.8461,0.8274,0.8272,0,0,0.8632,0.8613,0.858,0.857,0.8581,0.8595,0.8591,0.8517,0.8493,0.846,0.8456,0.8461,0.8461,0.846,0.8275,0.8273,0,0,0,0.8636,0.8614,0.8612,0.8574,0.8566,0.8593,0.8589,0.8496,0.8497,0.8455,0.846,0.8461,0.8459,0.8276,0.8274,0.8196,0,0,0,0.8638,0.8617,0.8613,0.86,0.8567,0.8531,0.8569,0.8502,0.8494,0.8461,0.8461,0.8458,0.8278,0.8275,0.8201,0.8161,0,0,0,0.8637,0.8617,0.8606,0.86,0.8575,0.8533,0.8529,0.8501,0.8497,0.8462,0.8458,0.8278,0.8276,0.8206,0.8168,0.8104,0,0,0,0.8628,0.8536,0.8604,0.8504,0.8576,0.8487,0.853,0.8464,0.8425,0.846,0.8277,0.8274,0.8207,0.8173,0.8109,0.8045,0.8017,0,0,0.8501,0.852,0.8463,0.8522,0.8417,0.8497,0.8379,0.8359,0.8372,0.8305,0.83,0.82,0.8169,0.8105,0.7877,0.7854,0,0,0,0.8416,0.8373,0.835,0.8313,0.8299,0.8282,0.8284,0.8277,0.8221,0.8335,0.8162,0.8144,0.8107,0.8077,0.8058,0.8027,0.8261,0.8261,0.8262,0.8204,0.8229,0.8135,0.8152,0.8116,0.8121,0.8092,0.8083,0.8116,0.8075,0.8053,0.7912,0.7876,0.7862,0.7829,0.8025,0.8024,0.8024,0.8024,0.8017,0.796,0.801,0.7936,0.7962,0.7898,0.7899,0.7925,0.7867,0.793,0.7899,0.7961,0.7838,0.7809,0.8018,0.8019,0.802,0.8021,0.8021,0.7878,0.7855,0.7852,0.7802,0.7761,0.7783,0.7726,0.7752,0.7774,0.7744,0.7723,0.7724,0.7725,0.7733,0.7733,0.7732,0.7732,0.7732,0.7731,0.7734,0.7733,0.7684,0.7663,0.7643,0.762,0.7625,0.7605,0.7589,0.7612,0.7611,0.7646,0.7823,0.7865,0.7724,0.7725,0.7726,0.7727,0.7727,0.7528,0.758,0.7503,0.7484,0.7461,0.7418,0.7454,0.7411,0.7399,0.7369,0.7413,0.7541,0.756,0.7575,0.7609,0.741,0.741,0.741,0.741,0.7407,0.7423,0.735,0.7318,0.7289,0.7314,0.7223,0.7227,0.7237,0.723,0.7264,0.7313,0.7328,0.7338,0.7358,0.739,0.714,0.714,0.7139,0.728,0.7294,0.7213,0.7228,0.7213,0.7198,0.7114,0.7071,0.7094,0.7129,0.7224,0.7236,0.7316,0.7341,0.7373,0.7403,0.7463,0,0]}]]